"Pseudo-MPEC" for P11Or3B

Created 2023 Dec 2 2:22:05 UT using Find_Orb

Click here for an explanation of pseudo-MPECs

 
 Astrometry: 
     P11Or3B* C2023 11 19g21^)@vSD!U;/C/`+U%oUxYW]yhIsU[^m$DqETAstrometry#M:?F51
     P11Or3B  C2023 11 192WOl*j_redacted;a'^)P1click8eo,^NP/POhere6H)mOxgU.5RF51
     P11Or3B  C2023 11 19taZ3EdD7for*:ChhMwrgA`[J^fmtexplanation(MVYai$K4U(9wF51

Station data:
(F51) Pan-STARRS 1, Haleakala  (N20.707234 W156.255910)  US/Hawaii.
   Observers J. Bulger, T. Lowe, A. Schultz, M. Willman. Measurers K.
   Chambers, S. Chastel, T. de Boer, L. Denneau, J. Fairlamb, H. Flewelling,
   M. Huber, C.-C. Lin, E. Magnier, Y. Ramanjooloo, R. Wainscoat, R. Weryk.
   1.8-m Ritchey-Chrétien + CCD.

Orbital elements:  P11Or3B
   Perihelion 2023 Sep 24.72799 +/- 50.9 TT = 17:28:18 (JD 2460212.22799)
Epoch 2023 Nov 19.0 TT = JDT 2460267.5   Earth MOID: 0.3494   Ju: 0.6007
M   9.91028872 +/- 15               Ma: 0.0610                   AutoNEOCP
n   0.17930030 +/- 0.204            Peri.  336.74231 +/- 70
a   3.11469385 +/- 2.36             Node    38.90643 +/- 45
e   0.5696291 +/- 0.24              Incl.    9.51502 +/- 5.7
P   5.50                   H 22.09  G  0.15   U 11.7  SR
q 1.34047340 +/- 0.448    Q 4.88891431 +/- 82.4           (J2000 ecliptic)
From 3 observations 2023 Nov. 19 (50.9 min); mean residual 0".06
Residuals in arcseconds: 
231119 F51  .03+  .01-    231119 F51  .11-  .05+    231119 F51  .08+  .04-    

Ephemerides (geocentric):
Date (UTC) HH   RA             Dec           delta  r     elong  mag " sig PA
---- --------  ------------   ------------  ------ ------ -----  --- --------
2023 12 02 02  03 26 20.446   +30 35 55.07  .56532 1.5359 163.2 22.5  39d 110
2023 12 02 03  03 26 19.558   +30 36 14.41  .56562 1.5361 163.2 22.5  39d 110
2023 12 02 04  03 26 18.674   +30 36 33.71  .56591 1.5364 163.1 22.5  39d 110
2023 12 02 05  03 26 17.794   +30 36 52.98  .56620 1.5366 163.1 22.5  39d 110
2023 12 02 06  03 26 16.917   +30 37 12.20  .56649 1.5368 163.1 22.5  39d 110
2023 12 02 07  03 26 16.044   +30 37 31.39  .56678 1.5370 163.0 22.5  39d 110
2023 12 02 08  03 26 15.174   +30 37 50.53  .56708 1.5372 163.0 22.5  39d 110
2023 12 02 09  03 26 14.308   +30 38 09.64  .56737 1.5374 163.0 22.5  39d 110
2023 12 02 10  03 26 13.446   +30 38 28.71  .56766 1.5376 162.9 22.5  39d 110
2023 12 02 11  03 26 12.587   +30 38 47.74  .56796 1.5379 162.9 22.5  39d 110
2023 12 02 12  03 26 11.732   +30 39 06.73  .56825 1.5381 162.8 22.5  39d 110
2023 12 02 13  03 26 10.880   +30 39 25.68  .56855 1.5383 162.8 22.5  39d 110
2023 12 02 14  03 26 10.032   +30 39 44.59  .56884 1.5385 162.8 22.5  39d 110
2023 12 02 15  03 26 09.188   +30 40 03.46  .56914 1.5387 162.7 22.5  39d 110
2023 12 02 16  03 26 08.347   +30 40 22.30  .56943 1.5389 162.7 22.5  39d 109
2023 12 02 17  03 26 07.510   +30 40 41.09  .56973 1.5392 162.7 22.5  39d 109
2023 12 02 18  03 26 06.676   +30 40 59.85  .57002 1.5394 162.6 22.5  40d 109
2023 12 02 19  03 26 05.846   +30 41 18.56  .57032 1.5396 162.6 22.5  40d 109
2023 12 02 20  03 26 05.020   +30 41 37.24  .57062 1.5398 162.6 22.5  40d 109
2023 12 02 21  03 26 04.197   +30 41 55.88  .57091 1.5400 162.5 22.5  40d 109
2023 12 02 22  03 26 03.378   +30 42 14.49  .57121 1.5402 162.5 22.5  40d 108
2023 12 02 23  03 26 02.563   +30 42 33.05  .57151 1.5404 162.4 22.5  40d 108
2023 12 03 00  03 26 01.751   +30 42 51.58  .57180 1.5407 162.4 22.5  40d 108
2023 12 03 01  03 26 00.943   +30 43 10.06  .57210 1.5409 162.4 22.5  40d 108
2023 12 03 02  03 26 00.139   +30 43 28.51  .57240 1.5411 162.3 22.5  40d 108
2023 12 03 03  03 25 59.338   +30 43 46.92  .57270 1.5413 162.3 22.5  40d 108
2023 12 03 04  03 25 58.541   +30 44 05.30  .57300 1.5415 162.3 22.5  41d 109
2023 12 03 05  03 25 57.748   +30 44 23.63  .57330 1.5417 162.2 22.5  41d 109
2023 12 03 06  03 25 56.958   +30 44 41.93  .57360 1.5420 162.2 22.5  41d 109
2023 12 03 07  03 25 56.172   +30 45 00.18  .57390 1.5422 162.2 22.5  41d 109
2023 12 03 08  03 25 55.390   +30 45 18.41  .57420 1.5424 162.1 22.5  41d 109
2023 12 03 09  03 25 54.611   +30 45 36.59  .57450 1.5426 162.1 22.5  41d 109
2023 12 03 10  03 25 53.836   +30 45 54.73  .57480 1.5428 162.0 22.5  41d 109
2023 12 03 11  03 25 53.065   +30 46 12.84  .57510 1.5430 162.0 22.5  41d 109
2023 12 03 12  03 25 52.298   +30 46 30.91  .57540 1.5433 162.0 22.5  41d 109
2023 12 03 13  03 25 51.534   +30 46 48.94  .57570 1.5435 161.9 22.5  41d 109
2023 12 03 14  03 25 50.774   +30 47 06.94  .57600 1.5437 161.9 22.5  41d 109
2023 12 03 15  03 25 50.018   +30 47 24.89  .57631 1.5439 161.9 22.5  41d 109
2023 12 03 16  03 25 49.265   +30 47 42.81  .57661 1.5441 161.8 22.5  41d 109
2023 12 03 17  03 25 48.516   +30 48 00.69  .57691 1.5443 161.8 22.5  41d 109
2023 12 03 18  03 25 47.771   +30 48 18.54  .57721 1.5446 161.8 22.5  41d 109
2023 12 03 19  03 25 47.029   +30 48 36.35  .57752 1.5448 161.7 22.6  41d 109
2023 12 03 20  03 25 46.292   +30 48 54.12  .57782 1.5450 161.7 22.6  41d 110
2023 12 03 21  03 25 45.558   +30 49 11.85  .57813 1.5452 161.6 22.6  41d 110
2023 12 03 22  03 25 44.828   +30 49 29.55  .57843 1.5454 161.6 22.6  41d 110
2023 12 03 23  03 25 44.101   +30 49 47.21  .57873 1.5456 161.6 22.6  41d 110
2023 12 04 00  03 25 43.378   +30 50 04.83  .57904 1.5459 161.5 22.6  41d 110
2023 12 04 01  03 25 42.659   +30 50 22.41  .57934 1.5461 161.5 22.6  41d 110